www.pogodaiklimat.ru

Погода и климат >> Архив погоды >> Россия >> Ямало-Ненецкий АО >> Ныда


ПОГОДА в Ныде

  • Прогноз погоды в Ныде
  • Монитор погоды в Ныде
  • Климат города

АРХИВ ПОГОДЫ в Ныде

Время (UTC), дата Ветер
(напр.,м/с)
 
Видим.   Явления Облачность Т
(С)
Тd
(С)
f
(%)
Тe
(С)
Тes
(С)
Комфортность P
(гПа)
Po
(гПа)
Тmin
(С)
Tmax
(С)
R
(мм)
R24
(мм)
S
(см)
12 17.04 З 2 20 км {метель} 4/0
[Ci fib]
-14.6 -17.9 76 -20 -18 1017.0 1016.0
15 17.04 З 7 10 км 4/3 300 м
[Sc Ci fib]
-17.7 -20.7 77 -29 -29 1016.8 1015.8 -14.5
18 17.04 ЮЗ 6
{10}
10 км 4/4 300 м
[Sc]
-16.7 -21.0 69 -27 -27 1016.7 1015.7
21 17.04 ЮЗ 7
{10}
10 км 4/4 300 м
[Sc]
-17.4 -21.5 70 -28 -28 1014.1 1013.1
00 18.04 ЮЗ 7
{10}
10 км 9/0
[Ac trans]
-15.9 -19.8 72 -26 -26 1012.5 1011.5
03 18.04 ЮЗ 9-12
{12}
10 км позёмок {метель} 10/0
[As trans]
-12.4 -16.1 100 -23 -23 1010.3 1009.4 -18.1 110
06 18.04 ЮЗ 9-12
{13}
10 км позёмок {метель} 8/0
[Ac trans Ci sp]
-8.5 -12.1 75 -18 -18 1008.6 1007.7
09 18.04 ЮЗ 10-14
{14}
10 км позёмок {метель} 8/0
[Ac trans Ci sp]
-6.2 -9.6 77 -16 -16 1007.1 1006.2
12 18.04 ЮЗ 10-13
{15}
4000 м метель 10/0
[As trans]
-5.7 -9.5 75 -15 -15 1005.0 1004.1
15 18.04 ЮЗ 12-15
{17}
4000 м метель {снег} 9/0
[Ac trans]
-6.5 -9.8 77 -17 -17 1001.9 1001.0 -5.4 0.0
18 18.04 Ю 11-14
{16}
2000 м слабый снег {метель} 10/0
[As op]
-6.6 -8.1 89 -17 -17 996.6 995.7
21 18.04 ЮЗ 9-12
{14}
4000 м слабый снег {метель} 10/0
[As op]
-5.5 -6.8 91 -15 -15 994.9 994.0
00 19.04 ЮЗ 8-10
{14}
10 км позёмок {снег, метель} 9/8 300 м
[Sc Ac trans]
-7.2 -8.8 88 -17 -17 993.9 993.0
03 19.04 ЮЗ 7
{10}
10 км позёмок {метель} 9/8 300 м
[Sc Ci fib]
-9.1 -11.4 83 -18 -18 993.5 992.6 -9.1 1 110
06 19.04 З 7
{10}
10 км {метель} 3/3 600 м
[Sc]
-7.6 -11.5 74 -16 -15 993.5 992.6 -9.2
09 19.04 З 5
{11}
10 км 4/3 600 м
[Sc Ci fib]
-7.3 -11.5 72 -15 -12 994.4 993.5
12 19.04 З 8-10
{11}
10 км позёмок {метель} 8/6 300 м
[Sc Ac trans]
-9.3 -13.0 74 -19 -19 996.1 995.2
15 19.04 ЮЗ 3
{10}
4000 м слабый ливневой снег {метель} 9/9 300 м
[Cb cap]
-13.9 -16.0 84 -20 -20 996.9 996.0 -7.2 0.2
18 19.04 ЮЗ 3
{10}
10 км {ливн. осадки, метель} 8/8 300 м
[Sc]
-16.9 -19.3 82 -24 -24 996.7 995.7
21 19.04 ЮЗ 2 10 км [диам. изморози 1 мм] 3/0
[Ci sp]
-20.0 -22.8 78 -26 -26 996.3 995.3
00 20.04 ЮВ 2 10 км [диам. изморози 2 мм] 4/0
[Ci sp]
-20.1 -22.6 80 -26 -26 996.6 995.5
03 20.04 Ю 3 10 км [диам. изморози 0 мм] 3/0
[Ci fib]
-16.2 -19.7 74 -23 -20 995.7 994.8 -23.3 0.0 110
06 20.04 ЮЗ 3 20 км 4/0
[Ac trans]
-11.7 -18.0 59 -18 -13 997.0 996.1
09 20.04 ЮЗ 2 20 км 5/0
[Ac trans Ci fib]
-11.7 -16.9 65 -16 -11 997.5 996.6
12 20.04 З 3 20 км 3/0
[Ac trans]
-13.5 -17.5 72 -20 -18 999.1 998.6
15 20.04 З 3 10 км 3/0
[Ac trans]
-18.3 -21.2 78 -26 -26 999.5 998.6 -11.1
18 20.04 ЮЗ 1 10 км ясно -22.6 -25.5 77 -26 -26 999.6 998.6
21 20.04 З 2 1000 м дымка 10/0
[As trans]
-22.8 -25.9 76 -29 -29 998.6 997.6
00 21.04 штиль 0 1000 м дымка 10/0
[As trans]
-25.2 -28.8 72 -25 -25 998.4 997.4
03 21.04 Ю 2 10 км [диам. изморози 9 мм] 6/0
[Ac trans]
-21.3 -24.6 75 -27 -25 998.3 997.3 -26.8 109
06 21.04 ЮЗ 5 10 км [диам. изморози 0 мм] 5/0
[Ac trans Ci sp]
-17.7 -20.6 78 -27 -24 998.1 997.1
09 21.04 З 6 4000 м слабый снег 10/0
[Ac As]
-13.0 -15.9 79 -22 -21 998.6 997.7
12 21.04 З 7
{10}
10 км позёмок {снег, метель} 9/0
[Ac trans Ci sp]
-12.2 -15.2 78 -22 -21 999.4 998.5
15 21.04 З 8-11
{11}
10 км позёмок {метель} 9/0
[Ac trans Ci sp]
-13.8 -16.6 79 -24 -24 1000.0 999.1 -12.0 0.0
18 21.04 З 9-10
{13}
10 км позёмок {метель} 6/0
[Ac trans Ci sp]
-16.4 -19.0 80 -28 -28 1000.5 999.5
21 21.04 З 8
{11}
10 км позёмок {метель} 6/6 300 м
[Sc]
-17.7 -20.3 80 1001.6 1000.6
00 22.04 З 8
{11}
10 км позёмок {метель} ясно -16.7 -19.3 80 -28 -28 1002.9 1001.9
03 22.04 З 7
{10}
10 км позёмок {метель} 8/0
[Ac trans Ci sp]
-16.6 -19.3 80 -27 -27 1003.8 1002.8 -18.7 108
06 22.04 З 7 10 км позёмок {метель} 8/0
[Ac trans Ci sp]
-12.8 -15.5 80 -22 -21 1005.1 1004.2
09 22.04 З 7
{10}
10 км позёмок {метель} 8/0
[Ac trans Ci sp]
-11.3 -14.1 80 -21 -19 1006.7 1005.8
12 22.04 З 7
{11}
10 км {метель} 8/0
[Ac trans Ci fib]
-11.0 -13.8 80 -20 -20 1008.7 1007.8
15 22.04 З 6 10 км 8/3 600 м
[Sc Ac trans Ci fib]
-14.0 -16.4 82 -23 -23 1010.9 1009.9 -10.8
18 22.04 ЮЗ 5 10 км 6/3 600 м
[Sc Ci fib]
-15.9 -18.4 81 -25 -25 1012.4 1011.4
21 22.04 СЗ 2 10 км 3/3 600 м
[Sc]
-19.4 -22.0 80 -25 -25 1014.1 1013.1
00 23.04 ЮЗ 1 10 км ясно -19.1 -21.9 78 -22 -22 1015.2 1014.2
03 23.04 Ю 2 10 км ясно -16.3 -19.7 75 -22 -18 1016.3 1015.3 -21.6 108
06 23.04 ЮВ 3 10 км ясно -9.8 -14.5 68 -16 -9 1017.5 1016.5
09 23.04 ЮВ 4 20 км 3/0
[Ci sp]
-6.3 -11.1 69 -13 -8 1017.6 1016.7
12 23.04 ЮВ 5 20 км 3/0
[Ci sp]
-7.0 -11.9 68 -14 -13 1016.9 1016.0
15 23.04 ЮВ 5 10 км 8/0
[Ac trans Ci fib]
-11.2 -15.2 72 -19 -19 1016.7 1015.7 -5.9
18 23.04 Ю 5 10 км 8/0
[Ac trans Ci fib]
-11.7 -15.8 72 -20 -20 1015.7 1014.8
21 23.04 ЮВ 5 10 км 8/0
[Ac trans Ci fib]
-11.7 -15.6 73 -20 -20 1014.0 1013.1
00 24.04 ЮВ 6 4000 м слабый снег 10/10 300 м
[Sc]
-7.8 -9.6 87 -16 -16 1012.2 1011.3
03 24.04 ЮВ 5 10 км в посл. час снег 9/4 300 м
[Sc Ac trans]
-5.9 -8.5 82 -13 -13 1011.3 1010.4 -13.4 0.9 110
06 24.04 ЮВ 4 10 км {снег} 8/0
[Ac trans]
-3.1 -7.6 71 -9 -6 1009.0 1008.1
09 24.04 штиль 0 10 км 9/0
[Ac trans]
+1.7 -9.2 44 +1 +6 1008.1 1007.2

 

Местоположение метеостанции Ныда (Ямало-Ненецкий АО, Россия): широта 66.63 долгота 72.93 высота над уровнем моря 7 м.

В архиве по умолчанию представлена погода в Ныде за последнюю неделю. Архивные данные за месяц целиком и за предыдущие месяцы, начиная с января 2011 года, Вы можете получить, выбрав интересующий диапазон дат из раскрывающегося списка и нажав кнопку "Ввод!".


*Определитесь, кто Вы:
робот инопланетянин человек

Внимание! Время в таблицах - всемирное. Для получения местного времени необходимо прибавить поправку, которая в Ныде равна 5 ч.

Смотрите также архив погоды в соседних городах и на ближайших метеорологических станциях:

Погода в Пангодах (Ямало-Ненецкий АО, Россия) (113 км)
Погода в Новом Порте (Ямало-Ненецкий АО, Россия) (117 км)
Погода в Надыме (Ямало-Ненецкий АО, Россия) (130 км)
Погода в Новом Уренгое (Ямало-Ненецкий АО, Россия) (181 км)
Погода в Полуе (Ямало-Ненецкий АО, Россия) (201 км)
Погода в Белоярске (Ямало-Ненецкий АО, Россия) (212 км)
Погода в Лонг-Югане (Ямало-Ненецкий АО, Россия) (226 км)
Погода в Уренгое (Ямало-Ненецкий АО, Россия) (256 км)
Погода в Тазовском (Ямало-Ненецкий АО, Россия) (268 км)
Погода в Салехарде (Ямало-Ненецкий АО, Россия) (277 км)

Пояснения к столбцам:

Ветер - указаны скорость ветра в м/с - средняя за 10 мин, порывы в срок и между сроками (в фигурных скобках) и направление, откуда дует ветер: С - северный, СВ - северо-восточный, В - восточный, ЮВ - юго-восточный, Ю - южный, ЮЗ - юго-западный, З - западный, СЗ - северо-западный.
Видимость - горизонтальная дальность видимости в метрах или километрах. При видимости от 1 до 10 км при отсутствии осадков обычно наблюдается дымка, при ухудшении видимости до 1 км и менее - туман. В сухую погоду видимость может ухудшаться дымом, пылью или мглою.
Явления - указаны атмосферные явления, наблюдавшиеся в срок или в последний час перед сроком; фигурными скобками обозначены явления, наблюдавшиеся между сроками (за 1-3 часа до срока); квадратными скобками обозначены град или гололедные отложения с указанием их диаметра в мм.
Облачность - указаны через наклонную черту общая и нижняя облачность в баллах и высота нижней границы облаков в метрах; квадратными скобками обозначены формы облаков: Ci - перистые, Cs - перисто-слоистые, Cc - перисто-кучевые, Ac - высококучевые, As - высокослоистые, Sc - слоисто-кучевые, Ns - слоисто-дождевые, Cu - кучевые, Cb - кучево-дождевые. Подробнее классификацию облаков см. в Атласе облаков (PDF).
T - Температура воздуха - температура, измеренная на высоте 2 м над землей.
Td - Температура точки росы - температура, при понижении до которой содержащийся в воздухе водяной пар достигнет насыщения.
f - Относительная влажность воздуха - влажноcть воздуха, измеренная на высоте 2 м над землей.
Te - Эффективная температура - температура, которую ощущает одетый по сезону человек в тени. Характеристика душности погоды. При расчете учитывается влияние влажности воздуха и скорости ветра на теплоощущения человека.
Tes - Эффективная температура на солнце - температура, которую ощущает человек, с поправкой на солнечный нагрев. Характеристика знойности погоды. Зависит от высоты солнца над горизонтом, облачности и скорости ветра. Ночью, в пасмурную погоду, а также при ветре 12 м/с и более поправка равна нулю.
P - Атмосферное давление - приведенное к уровню моря атмосферное давление.
Po - Атмосферное давление - измеренное на уровне метеостанции атмосферное давление.
Tmin - Минимальная температура - минимум температуры воздуха на высоте 2 м над землей.
Tmax - Максимальная температура - максимум температуры воздуха на высоте 2 м над землей.
R - Количество осадков - Количество выпавших осадков за период времени, мм. При наведении курсора мыши на число - период времени, за который выпало указанное количество осадков.
R24 - Количество осадков - Количество выпавших осадков за 24 часа, мм.
S - Снежный покров - Высота снежного покрова, см. При наведении курсора мыши на число - состояние снежного покрова и степень покрытия местности в баллах.